TimeEDT,TemperatureF,Dew PointF,Humidity,Sea Level PressureIn,VisibilityMPH,Wind Direction,Wind SpeedMPH,Gust SpeedMPH,PrecipitationIn,Events,Conditions,WindDirDegrees,DateUTC
12:15 AM,17.6,15.8,93,30.32,1.8,Calm,Calm,-,N/A,,Clear,0,2013-03-10 05:15:00
12:20 AM,17.6,15.8,93,30.32,3.0,Calm,Calm,-,N/A,,Clear,0,2013-03-10 05:20:00
12:32 AM,17.6,17.6,100,30.33,1.5,Calm,Calm,-,N/A,,Clear,0,2013-03-10 05:32:00
12:34 AM,17.6,15.8,93,30.33,1.0,Calm,Calm,-,N/A,,Clear,0,2013-03-10 05:34:00
12:43 AM,17.6,15.8,93,30.33,1.8,Calm,Calm,-,N/A,,Clear,0,2013-03-10 05:43:00
12:45 AM,17.6,15.8,93,30.33,3.0,Calm,Calm,-,N/A,,Clear,0,2013-03-10 05:45:00
12:52 AM,16.0,14.0,92,30.39,3.0,Calm,Calm,-,N/A,,Clear,0,2013-03-10 05:52:00
12:58 AM,17.6,15.8,93,30.34,1.8,Calm,Calm,-,N/A,,Clear,0,2013-03-10 05:58:00
1:07 AM,17.6,15.8,93,30.34,1.0,Calm,Calm,-,N/A,,Clear,0,2013-03-10 06:07:00
1:16 AM,17.6,15.8,93,30.33,0.5,Calm,Calm,-,N/A,Fog,Light Freezing Fog,0,2013-03-10 06:16:00
1:27 AM,17.6,14.0,86,30.33,1.2,Calm,Calm,-,N/A,,Clear,0,2013-03-10 06:27:00
1:29 AM,17.6,14.0,86,30.34,2.0,Calm,Calm,-,N/A,,Clear,0,2013-03-10 06:29:00
1:50 AM,15.8,12.2,86,30.34,6.0,Calm,Calm,-,N/A,,Clear,0,2013-03-10 06:50:00
1:52 AM,16.0,14.0,92,30.39,6.0,Calm,Calm,-,N/A,,Clear,0,2013-03-10 06:52:00
3:05 AM,14.0,12.2,93,30.34,2.0,Calm,Calm,-,N/A,,Clear,0,2013-03-10 07:05:00
3:14 AM,15.8,12.2,86,30.33,8.0,Calm,Calm,-,N/A,,Clear,0,2013-03-10 07:14:00
3:52 AM,16.0,12.9,88,30.37,2.5,Calm,Calm,-,N/A,,Clear,0,2013-03-10 07:52:00
3:59 AM,15.8,12.2,86,30.32,6.0,Calm,Calm,-,N/A,,Clear,0,2013-03-10 07:59:00
4:52 AM,14.0,12.0,92,30.38,2.5,Calm,Calm,-,N/A,,Clear,0,2013-03-10 08:52:00
4:55 AM,14.0,12.2,93,30.33,1.2,Calm,Calm,-,N/A,,Clear,0,2013-03-10 08:55:00
5:03 AM,15.8,10.4,79,30.33,1.0,Calm,Calm,-,N/A,,Clear,0,2013-03-10 09:03:00
5:14 AM,15.8,12.2,86,30.33,1.5,Calm,Calm,-,N/A,,Clear,0,2013-03-10 09:14:00
5:24 AM,15.8,12.2,86,30.33,1.0,Calm,Calm,-,N/A,,Clear,0,2013-03-10 09:24:00
5:34 AM,12.2,8.6,85,30.33,1.5,Calm,Calm,-,N/A,,Clear,0,2013-03-10 09:34:00
5:36 AM,12.2,10.4,92,30.33,3.0,Calm,Calm,-,N/A,,Clear,0,2013-03-10 09:36:00
5:52 AM,12.9,10.9,92,30.39,9.0,Calm,Calm,-,N/A,,Clear,0,2013-03-10 09:52:00
6:52 AM,12.0,8.1,84,30.40,9.0,Calm,Calm,-,N/A,,Clear,0,2013-03-10 10:52:00
8:52 AM,19.9,19.9,100,30.43,10.0,Calm,Calm,-,N/A,,Clear,0,2013-03-10 12:52:00
9:52 AM,28.9,26.1,89,30.43,10.0,Calm,Calm,-,N/A,,Clear,0,2013-03-10 13:52:00
10:52 AM,36.0,25.0,64,30.41,10.0,Calm,Calm,-,N/A,,Clear,0,2013-03-10 14:52:00
11:52 AM,37.9,23.0,55,30.38,10.0,SSE,6.9,-,N/A,,Clear,160,2013-03-10 15:52:00
12:52 PM,39.9,24.1,53,30.38,10.0,Calm,Calm,-,N/A,,Clear,0,2013-03-10 16:52:00
1:52 PM,44.1,23.0,43,30.36,10.0,South,4.6,-,N/A,,Clear,170,2013-03-10 17:52:00
2:52 PM,45.0,23.0,42,30.34,10.0,SSE,8.1,-,N/A,,Clear,160,2013-03-10 18:52:00
3:52 PM,44.1,23.0,43,30.33,10.0,Variable,6.9,-,N/A,,Clear,0,2013-03-10 19:52:00
4:52 PM,44.1,25.0,47,30.32,10.0,South,9.2,-,N/A,,Clear,190,2013-03-10 20:52:00
5:52 PM,43.0,26.1,51,30.31,10.0,SSE,10.4,-,N/A,,Clear,160,2013-03-10 21:52:00
6:52 PM,39.9,26.1,58,30.32,10.0,SSE,3.5,-,N/A,,Clear,160,2013-03-10 22:52:00
7:52 PM,37.9,27.0,65,30.34,10.0,South,5.8,-,N/A,,Partly Cloudy,170,2013-03-10 23:52:00
8:52 PM,37.9,27.0,65,30.32,10.0,South,4.6,-,N/A,,Mostly Cloudy,170,2013-03-11 00:52:00
9:52 PM,37.0,28.0,70,30.31,10.0,South,6.9,-,N/A,,Overcast,190,2013-03-11 01:52:00
10:52 PM,35.1,28.9,78,30.30,10.0,South,5.8,-,N/A,,Partly Cloudy,180,2013-03-11 02:52:00
12:52 AM,35.1,28.9,78,30.30,10.0,Calm,Calm,-,N/A,,Mostly Cloudy,0,2013-03-11 04:52:00